Location: Ash Observatory
(39.7321°N, 75.2004°W)
Time: 17:56:31
(UTC-04:00)

ISS - Pass Details

Date: 27 May 2019
Orbit: 407 x 418 km, 51.6° (Epoch: 25 June)

Event Time Altitude Azimuth Distance (km) Brightness Sun altitude
Rises 00:22:00 0° 311° (NW) 2,363 0.8 -28.4°
Reaches altitude 10° 00:24:10 10° 318° (NW) 1,499 -0.3 -28.5°
Enters shadow 00:25:00 16° 324° (NW) 1,183 -0.8 -28.5°
